Location: Rochester
(43.1610°N, 77.6109°W)
Time: 11:18:23
(UTC-05:00)

N. Korean satellite - Visible Passes

Search period start: 18 February 2019 00:00
Search period end: 28 February 2019 00:00
Orbit: 457 x 510 km, 97.2° (Epoch: 17 February)

Date Brightness Start Highest point End Pass type
(mag) Time Alt. Az. Time Alt. Az. Time Alt. Az.
19 Feb 6.9 06:18:48 10° NNE 06:22:15 68° E 06:25:40 10° S visible
19 Feb 9.9 18:29:33 10° SW 18:32:09 18° W 18:34:45 10° NW visible
20 Feb 8.6 05:54:20 10° NNE 05:57:27 30° E 06:00:31 10° SSE visible
21 Feb 9.9 05:30:25 10° NE 05:32:33 15° E 05:34:40 10° SE visible
22 Feb 10.6 18:50:41 10° WSW 18:51:31 11° W 18:52:21 10° WNW visible
23 Feb 7.3 06:13:16 10° NNE 06:16:42 56° E 06:20:03 10° S visible
23 Feb 9.8 18:23:47 10° SW 18:26:35 21° W 18:29:22 10° NW visible
24 Feb 9.0 05:48:54 10° NE 05:51:51 26° E 05:54:47 10° SSE visible
25 Feb 10.0 05:25:12 10° ENE 05:26:56 13° E 05:28:39 10° ESE visible
26 Feb 10.4 18:44:24 10° WSW 18:45:54 12° W 18:47:24 10° WNW visible
27 Feb 7.7 06:07:43 10° NNE 06:11:04 47° E 06:14:23 10° S visible
